User: anonymous   Login
Location: Whispering Pines Observatory
(39.4020°N, 104.7430°W)
Time: 20:39:28
(UTC-06:00)
Language:

MOS 1 Rocket - Orbit

View from above orbital plane
View from above orbital plane
View from above satellite
View from above satellite

Ground track
Ground track

The orbit data is extracted from the following two-line orbital elements,

1 17528U 87018B   15209.17539784  .00000138  00000-0  40332-4 0  9996
2 17528 097.4135 236.4960 0151565 301.4736 097.1458 14.50468806499841
Epoch (UTC): 28 July 2015 04:12:34
Eccentricity: 0.0151565
inclination: 97.4135°
perigee height: 616 km
apogee height: 832 km
right ascension of ascending node: 236.4960°
argument of perigee: 301.4736°
revolutions per day: 14.50468806
mean anomaly at epoch: 97.1458°
orbit number at epoch: 49984

The dashed part of the orbit path shows where the satellite is in the earth's shadow,  

DLR